This demonstration page uses our WeatherBlox Daily Observations layout. Learn more.

Left ArrowRight Arrow

Hourly Observations for October 4, 2022

Temp ( °F °C ) Dew Point ( °F °C ) Humidity (%) Winds ( mph kmh ) Pressure ( in mb ) Visibility ( mi km ) Precip ( " mm )
12:51 am 00:51 Clear 66 18.9 57 13.9 73 73 SE 3 6 29.89 1012 10 16 0.00 0.00
1:51 am 01:51 Cloudy with Light Rain 66 18.9 58 14.4 75 75 NNE 3 6 29.87 1012 10 16 0.01 0.13
2:51 am 02:51 Mostly Cloudy 65 18.3 59 15 81 81 W 3 6 29.88 1012 10 16 0.01 0.13
3:51 am 03:51 Mostly Cloudy 65 18.3 57 13.9 76 76 ESE 9 15 29.90 1013 10 16 0.01 0.13
4:33 am 04:33 Cloudy with Nearby Thunderstorms 64 17.8 61 16.1 90 90 W 14 22 29.97 1015 10 16 0.01 0.13
4:51 am 04:51 Cloudy with Nearby Thunderstorms 62 16.7 61 16.1 96 96 NW 10 17 29.97 1015 9 14 0.01 0.13
5:00 am 05:00 Cloudy with Strong Thunderstorms 61 16.1 61 16.1 100 100 WNW 8 13 30.03 1017 3 5 0.04 1.02
5:32 am 05:32 Cloudy with Nearby Thunderstorms 60 15.6 60 15.6 100 100 E 9 15 30.02 1017 5 8 0.20 5.08
5:51 am 05:51 Cloudy with Nearby Thunderstorms 60 15.6 57 13.9 90 90 ENE 21 33 29.90 1013 9 14 0.26 6.60
6:11 am 06:11 Cloudy with Light Rain 60 15.6 57 13.9 90 90 E 20 31 29.96 1015 10 16 0.01 0.13
6:51 am 06:51 Mostly Cloudy with Nearby Thunderstorms 61 16.1 58 14.4 90 90 E 13 20 29.96 1014 10 16 0.01 0.25
7:00 am 07:00 Mostly Cloudy 61 16.1 57 13.9 87 87 E 12 19 29.99 1016 10 16 0.00 0.00
7:51 am 07:51 Cloudy with Light Rain 61 16.1 60 15.6 97 97 S 6 9 29.99 1016 10 16 0.03 0.76
8:51 am 08:51 Cloudy with Light Rain 59 15 58 14.4 96 96 ENE 7 11 30.04 1017 10 16 0.02 0.51
9:51 am 09:51 Cloudy 60 15.6 57 13.9 90 90 SE 24 39 30.01 1016 10 16 0.04 1.02
10:51 am 10:51 Partly Cloudy 62 16.7 57 13.9 84 84 E 10 17 30.02 1017 10 16 0.00 0.00
11:51 am 11:51 Sunny 66 18.9 56 13.3 70 70 E 12 19 30.00 1016 10 16 0.00 0.00
12:51 pm 12:51 Mostly Sunny 69 20.6 54 12.2 59 59 E 12 19 29.95 1014 10 16 0.00 0.00
1:51 pm 13:51 Sunny 71 21.7 54 12.2 55 55 ESE 7 11 29.91 1013 10 16 0.00 0.00
2:51 pm 14:51 Sunny 72 22.2 53 11.7 51 51 E 7 11 29.89 1012 10 16 0.00 0.00
3:51 pm 15:51 Sunny 75 23.9 53 11.7 46 46 E 6 9 29.88 1012 10 16 0.00 0.00
4:51 pm 16:51 Sunny 74 23.3 52 11.1 46 46 SE 5 7 29.88 1012 10 16 0.00 0.00
5:51 pm 17:51 Sunny 71 21.7 56 13.3 59 59 SW 3 6 29.90 1012 10 16 0.00 0.00
6:51 pm 18:51 Clear 66 18.9 60 15.6 81 81 N 7 11 29.92 1013 10 16 0.00 0.00
7:51 pm 19:51 Clear 65 18.3 58 14.4 78 78 NE 5 7 29.94 1014 10 16 0.00 0.00
8:51 pm 20:51 Clear 63 17.2 58 14.4 84 84 SSE 3 6 29.97 1015 10 16 0.00 0.00
9:51 pm 21:51 Clear 62 16.7 57 13.9 84 84 SE 5 7 29.98 1015 10 16 0.00 0.00
10:51 pm 22:51 Clear 59 15 58 14.4 96 96 SSE 5 7 29.97 1015 10 16 0.00 0.00
11:51 pm 23:51 Clear 58 14.4 57 13.9 97 97 E 3 6 29.97 1015 10 16 0.00 0.00

Powered by AerisWeather